Time[GMT],temperature[C](20m),salinity[psu](20m),sigma_t[kg/m^3](20m),conductivity[msiemens/cm](20m)
2003-09-26 00:00,13.66,32.018,23.953,38.419
2003-09-26 01:00,13.47,32.117,24.068,38.354
2003-09-26 02:00,13.59,32.063,24.002,38.405
2003-09-26 03:00,13.36,32.122,24.094,38.261
2003-09-26 04:00,12.97,32.223,24.249,38.017
2003-09-26 05:00,12.83,32.279,24.319,37.949
2003-09-26 08:00,13.05,32.208,24.222,38.073
2003-09-26 09:00,13.10,32.197,24.203,38.106
2003-09-26 10:00,12.98,32.213,24.239,38.015
2003-09-26 11:00,12.85,32.251,24.294,37.938
2003-09-26 12:00,12.62,32.299,24.375,37.781
2003-09-26 14:00,13.18,32.185,24.178,38.165
2003-09-26 16:00,13.05,32.214,24.226,38.079
2003-09-26 17:00,13.16,32.193,24.188,38.156
2003-09-26 19:00,12.75,32.246,24.310,37.843
2003-09-26 20:00,12.53,32.337,24.422,37.740
2003-09-26 21:00,12.73,32.256,24.321,37.835
2003-09-26 22:00,13.37,32.089,24.066,38.234
2003-09-26 23:00,13.10,32.180,24.190,38.088
2003-09-27 00:00,12.97,32.179,24.215,37.970
2003-09-27 01:00,12.98,32.221,24.245,38.023
2003-09-27 03:00,13.06,32.214,24.224,38.088
2003-09-27 04:00,13.08,32.206,24.214,38.098
2003-09-27 05:00,12.90,32.248,24.282,37.980
2003-09-27 06:00,12.89,32.279,24.308,38.004
2003-09-27 07:00,12.97,32.248,24.268,38.043
2003-09-27 08:00,13.36,32.067,24.052,38.202
2003-09-27 09:00,13.27,32.071,24.072,38.125
2003-09-27 10:00,13.23,31.979,24.009,37.991
2003-09-27 11:00,12.78,32.224,24.286,37.846
2003-09-27 12:00,12.96,32.178,24.216,37.960
2003-09-27 13:00,13.06,32.169,24.189,38.040
2003-09-27 14:00,13.19,32.126,24.131,38.112
2003-09-27 15:00,13.09,32.209,24.215,38.110
2003-09-27 16:00,13.09,32.203,24.210,38.104
2003-09-27 17:00,13.01,32.230,24.246,38.060
2003-09-27 18:00,13.01,32.221,24.239,38.050
2003-09-27 19:00,12.90,32.257,24.289,37.989
2003-09-27 20:00,13.08,32.180,24.194,38.070
2003-09-27 21:00,13.12,32.156,24.168,38.081
2003-09-27 22:00,13.17,32.093,24.109,38.058
2003-09-28 00:00,13.11,32.110,24.134,38.023
2003-09-28 01:00,13.10,32.169,24.181,38.076
2003-09-28 02:00,13.05,32.173,24.195,38.036
2003-09-28 03:00,13.03,32.206,24.224,38.053
2003-09-28 04:00,13.21,32.185,24.173,38.193
2003-09-28 05:00,13.31,32.193,24.158,38.291
2003-09-28 06:00,13.32,32.235,24.189,38.345
2003-09-28 07:00,13.24,32.226,24.198,38.263
2003-09-28 08:00,13.11,32.250,24.242,38.171
2003-09-28 09:00,13.20,32.149,24.146,38.145
2003-09-28 10:00,13.32,32.013,24.018,38.108
2003-09-28 11:00,13.16,32.086,24.106,38.042
2003-09-28 12:00,12.79,32.280,24.328,37.914
2003-09-28 13:00,13.12,32.128,24.146,38.051
2003-09-28 15:00,13.28,32.122,24.110,38.189
2003-09-28 17:00,13.28,32.151,24.132,38.219
2003-09-28 18:00,13.16,32.232,24.219,38.198
2003-09-28 19:00,13.14,32.234,24.224,38.182
2003-09-28 20:00,13.12,32.234,24.228,38.163
2003-09-28 21:00,12.82,32.272,24.316,37.933
2003-09-28 22:00,13.10,32.139,24.159,38.045
2003-09-28 23:00,12.99,32.181,24.212,37.990
2003-09-29 00:00,,,,
2003-09-29 01:00,13.02,32.176,24.203,38.012
2003-09-29 02:00,13.10,32.175,24.186,38.083
2003-09-29 03:00,13.14,32.151,24.160,38.093
2003-09-29 04:00,13.29,32.114,24.102,38.189
2003-09-29 05:00,13.40,32.049,24.030,38.219
2003-09-29 06:00,13.24,32.149,24.138,38.181
2003-09-29 07:00,13.12,32.213,24.212,38.141
2003-09-29 08:00,13.10,32.229,24.228,38.140
2003-09-29 09:00,12.88,32.260,24.295,37.975
2003-09-29 10:00,12.76,32.298,24.347,37.906
2003-09-29 11:00,12.94,32.228,24.259,37.995
2003-09-29 12:00,13.12,32.092,24.118,38.013
2003-09-29 13:00,13.08,32.212,24.219,38.104
2003-09-29 14:00,13.08,32.210,24.217,38.102
2003-09-29 16:00,,,,
2003-09-29 17:00,13.11,32.200,24.203,38.118
2003-09-29 19:00,,,,
2003-09-29 20:00,13.01,32.241,24.255,38.072
2003-09-29 21:00,12.92,32.263,24.290,38.014
2003-09-29 22:00,12.90,32.278,24.305,38.012
2003-09-29 23:00,13.47,31.886,23.890,38.107
2003-09-30 00:00,13.50,31.865,23.867,38.111
2003-09-30 01:00,13.07,32.219,24.226,38.102
2003-09-30 02:00,13.13,32.146,24.158,38.079
2003-09-30 03:00,13.14,32.165,24.171,38.108
2003-09-30 04:00,13.15,32.165,24.169,38.117
2003-09-30 05:00,13.45,32.014,23.992,38.226
2003-09-30 06:00,13.29,32.107,24.097,38.182
2003-09-30 07:00,13.26,32.117,24.110,38.165
2003-09-30 08:00,13.13,32.171,24.178,38.106
2003-09-30 09:00,13.06,32.197,24.211,38.070
2003-09-30 10:00,13.11,32.179,24.187,38.096
2003-09-30 11:00,13.16,32.154,24.158,38.114
2003-09-30 13:00,13.17,32.125,24.134,38.093
2003-09-30 14:00,13.06,32.177,24.196,38.049
2003-09-30 15:00,13.13,32.159,24.168,38.093
2003-09-30 17:00,13.37,32.028,24.019,38.169
2003-09-30 18:00,13.20,32.130,24.132,38.125
2003-09-30 19:00,,,,
2003-09-30 20:00,13.14,32.168,24.173,38.111
2003-09-30 21:00,13.19,32.161,24.158,38.149
2003-09-30 23:00,12.71,32.332,24.384,37.897
2003-10-01 00:00,12.78,32.277,24.327,37.902
2003-10-01 01:00,13.18,32.079,24.097,38.053
2003-10-01 02:00,13.16,32.130,24.140,38.089
2003-10-01 03:00,13.18,32.116,24.125,38.092
2003-10-01 04:00,13.22,32.099,24.104,38.110
2003-10-01 06:00,13.28,32.077,24.075,38.140
2003-10-01 07:00,13.14,32.167,24.172,38.110
2003-10-01 08:00,13.11,32.180,24.188,38.097
2003-10-01 09:00,13.06,32.205,24.218,38.079
2003-10-01 10:00,13.01,32.231,24.247,38.061
2003-10-01 11:00,13.08,32.187,24.199,38.077
2003-10-01 12:00,13.24,31.996,24.020,38.018
2003-10-01 13:00,13.13,32.088,24.113,38.017
2003-10-01 14:00,13.09,32.169,24.183,38.067
2003-10-01 15:00,13.09,32.172,24.186,38.071
2003-10-01 16:00,13.10,32.159,24.174,38.066
2003-10-01 17:00,13.22,32.088,24.095,38.098
2003-10-01 19:00,13.19,32.119,24.125,38.104
2003-10-01 20:00,13.14,32.154,24.162,38.096
2003-10-01 21:00,13.05,32.186,24.204,38.049
2003-10-01 22:00,12.93,32.244,24.273,38.003
2003-10-01 23:00,13.02,32.206,24.226,38.044
2003-10-02 00:00,,,,
2003-10-02 01:00,13.16,32.131,24.140,38.090
2003-10-02 02:00,13.05,32.172,24.194,38.035
2003-10-02 03:00,12.91,32.256,24.286,37.997
2003-10-02 04:00,13.02,32.205,24.226,38.043
2003-10-02 05:00,13.10,32.158,24.173,38.065
2003-10-02 06:00,13.29,32.036,24.042,38.106
2003-10-02 07:00,13.23,32.076,24.084,38.094
2003-10-02 08:00,13.13,32.111,24.131,38.042
2003-10-02 09:00,13.08,32.151,24.171,38.039
2003-10-02 10:00,13.04,32.176,24.199,38.030
2003-10-02 11:00,12.91,32.241,24.274,37.981
2003-10-02 12:00,13.01,32.201,24.224,38.029
2003-10-02 13:00,12.94,32.232,24.262,37.999
2003-10-02 14:00,13.06,32.152,24.176,38.022
2003-10-02 15:00,13.04,32.171,24.195,38.024
2003-10-02 16:00,12.90,32.245,24.280,37.977
2003-10-02 17:00,12.98,32.210,24.237,38.012
2003-10-02 18:00,,,,
2003-10-02 19:00,13.10,32.108,24.134,38.011
2003-10-02 20:00,13.07,32.117,24.147,37.994
2003-10-02 22:00,12.85,32.255,24.297,37.942
2003-10-02 23:00,12.86,32.249,24.291,37.945
2003-10-03 00:00,12.87,32.243,24.284,37.948
2003-10-03 01:00,12.92,32.214,24.252,37.962
2003-10-03 03:00,12.94,32.214,24.248,37.980
2003-10-03 04:00,12.88,32.243,24.282,37.957
2003-10-03 05:00,12.81,32.274,24.319,37.926
2003-10-03 07:00,13.33,31.777,23.833,37.864
2003-10-03 08:00,13.19,31.939,23.986,37.912
2003-10-03 09:00,12.97,32.133,24.179,37.921
2003-10-03 10:00,12.88,32.170,24.225,37.879
2003-10-03 11:00,12.80,32.237,24.293,37.878
2003-10-03 12:00,12.83,32.210,24.266,37.877
2003-10-03 13:00,12.84,32.200,24.256,37.875
2003-10-03 14:00,12.91,32.166,24.216,37.902
2003-10-03 15:00,12.92,32.150,24.202,37.894
2003-10-03 16:00,12.84,32.225,24.276,37.902
2003-10-03 17:00,12.81,32.261,24.309,37.912
2003-10-03 20:00,12.94,32.125,24.179,37.886
2003-10-03 21:00,13.13,31.890,23.960,37.806
2003-10-03 22:00,12.91,32.135,24.192,37.869
2003-10-04 06:00,12.86,32.207,24.258,37.900
2003-10-04 08:00,12.96,32.000,24.078,37.771
2003-10-04 09:00,13.04,31.899,23.985,37.736
2003-10-04 11:00,12.66,32.244,24.325,37.759
2003-10-04 14:00,,,,
2003-10-04 15:00,12.78,32.222,24.285,37.844
2003-10-04 16:00,,,,
2003-10-04 18:00,,,,
2003-10-04 23:00,,,,
2003-10-05 00:00,12.77,32.185,24.258,37.796
2003-10-05 02:00,12.80,32.187,24.254,37.825
2003-10-05 03:00,12.78,32.205,24.272,37.826
2003-10-05 05:00,12.76,32.197,24.270,37.800
2003-10-05 06:00,12.76,32.201,24.273,37.804
2003-10-05 07:00,12.76,32.197,24.270,37.800
2003-10-05 08:00,12.74,32.203,24.278,37.788
2003-10-05 09:00,12.76,32.200,24.272,37.803
2003-10-05 10:00,12.75,32.189,24.265,37.782
2003-10-05 11:00,12.74,32.189,24.268,37.774
2003-10-05 12:00,12.69,32.209,24.293,37.750
2003-10-05 13:00,12.69,32.214,24.296,37.755
2003-10-05 14:00,12.59,32.299,24.381,37.754
2003-10-05 15:00,12.72,32.223,24.297,37.791
2003-10-05 16:00,12.69,32.244,24.319,37.786
2003-10-05 17:00,12.68,32.275,24.345,37.810
2003-10-05 18:00,12.77,32.188,24.260,37.799
2003-10-05 20:00,12.78,32.198,24.266,37.819
2003-10-05 21:00,12.81,32.205,24.266,37.853
2003-10-05 22:00,12.73,32.230,24.301,37.808
2003-10-05 23:00,12.74,32.208,24.282,37.794
2003-10-06 00:00,12.74,32.202,24.277,37.787
2003-10-06 01:00,12.69,32.239,24.315,37.781
2003-10-06 02:00,12.59,32.288,24.373,37.743
2003-10-06 03:00,12.67,32.256,24.332,37.781
2003-10-06 04:00,12.51,32.344,24.431,37.729
2003-10-06 05:00,12.50,32.348,24.437,37.725
2003-10-06 06:00,12.58,32.310,24.392,37.757
2003-10-06 07:00,12.81,32.162,24.233,37.808
2003-10-06 08:00,12.76,32.200,24.272,37.803
2003-10-06 09:00,12.70,32.241,24.315,37.792
2003-10-06 10:00,12.69,32.240,24.316,37.782
2003-10-06 11:00,12.66,32.257,24.335,37.773
2003-10-06 12:00,12.65,32.245,24.328,37.751
2003-10-06 13:00,12.60,32.252,24.343,37.714
2003-10-06 14:00,12.57,32.268,24.361,37.704
2003-10-06 15:00,12.62,32.236,24.327,37.715
2003-10-06 16:00,12.61,32.278,24.361,37.750
2003-10-06 17:00,12.62,32.281,24.361,37.762
2003-10-06 18:00,12.73,32.194,24.273,37.770
2003-10-06 19:00,12.74,32.177,24.258,37.761
2003-10-06 20:00,12.72,32.094,24.197,37.655
2003-10-06 21:00,12.68,32.236,24.315,37.769
2003-10-06 22:00,12.62,32.254,24.341,37.734
2003-10-07 01:00,12.59,32.169,24.281,37.618
2003-10-07 02:00,12.58,32.165,24.279,37.604
2003-10-07 03:00,12.54,32.228,24.336,37.635
2003-10-07 04:00,12.56,32.213,24.320,37.637
2003-10-07 05:00,12.58,32.224,24.325,37.666
2003-10-07 06:00,12.58,32.243,24.339,37.686
2003-10-07 07:00,12.69,32.146,24.243,37.683
2003-10-07 08:00,12.59,32.225,24.324,37.677
2003-10-07 09:00,12.60,32.221,24.319,37.681
2003-10-07 10:00,12.62,32.207,24.305,37.685
2003-10-07 11:00,12.54,32.212,24.323,37.618
2003-10-07 12:00,12.58,32.041,24.183,37.474
2003-10-07 13:00,12.54,32.038,24.188,37.435
2003-10-07 14:00,12.45,32.176,24.312,37.499
2003-10-07 15:00,12.42,32.251,24.376,37.551
2003-10-07 16:00,12.49,32.185,24.312,37.545
2003-10-07 19:00,12.48,32.246,24.361,37.600
2003-10-07 20:00,12.51,32.243,24.353,37.623
2003-10-07 22:00,12.49,32.233,24.349,37.595
2003-10-07 23:00,12.39,32.248,24.380,37.521
2003-10-08 00:00,12.53,31.855,24.049,37.234
2003-10-08 01:00,12.42,31.953,24.146,37.239
2003-10-08 02:00,12.30,32.130,24.305,37.317
2003-10-08 03:00,12.30,32.116,24.294,37.302
2003-10-08 04:00,12.22,32.198,24.373,37.316
2003-10-08 05:00,12.24,32.202,24.372,37.338
2003-10-08 07:00,,,,
2003-10-08 08:00,12.42,32.110,24.267,37.403
2003-10-08 09:00,12.33,32.190,24.346,37.406
2003-10-08 10:00,12.35,32.144,24.307,37.376
2003-10-08 11:00,12.32,32.167,24.330,37.373
2003-10-08 12:00,12.38,32.038,24.219,37.292
2003-10-08 13:00,12.37,31.940,24.145,37.181
2003-10-08 14:00,12.25,32.117,24.305,37.259
2003-10-08 15:00,12.24,32.117,24.307,37.250
2003-10-08 16:00,12.16,32.216,24.398,37.281
2003-10-08 17:00,12.16,32.240,24.417,37.306
2003-10-08 19:00,12.32,32.216,24.369,37.425
2003-10-08 21:00,12.50,32.161,24.291,37.528
2003-10-08 22:00,12.37,32.144,24.303,37.394
2003-10-08 23:00,12.27,32.218,24.379,37.382
2003-10-09 00:00,12.23,32.220,24.388,37.348
2003-10-09 01:00,12.40,31.948,24.145,37.216
2003-10-09 02:00,12.48,31.861,24.063,37.196
2003-10-09 03:00,12.31,32.059,24.249,37.252
2003-10-09 04:00,12.26,32.105,24.293,37.255
2003-10-09 05:00,12.18,32.230,24.406,37.314
2003-10-09 06:00,12.14,32.246,24.425,37.294
2003-10-09 07:00,12.15,32.221,24.404,37.277
2003-10-09 08:00,12.34,32.206,24.357,37.432
2003-10-09 09:00,12.44,32.151,24.295,37.464
2003-10-09 10:00,12.16,32.249,24.424,37.316
2003-10-09 11:00,12.22,32.214,24.386,37.333
2003-10-09 12:00,12.25,32.147,24.328,37.290
2003-10-09 13:00,12.30,32.160,24.328,37.348
2003-10-09 14:00,12.27,32.078,24.271,37.236
2003-10-09 15:00,12.20,32.159,24.347,37.258
2003-10-09 16:00,12.16,32.175,24.367,37.239
2003-10-09 17:00,12.23,32.129,24.318,37.253
2003-10-09 19:00,12.13,32.300,24.469,37.342
2003-10-09 20:00,12.17,32.227,24.405,37.302
2003-10-09 21:00,12.59,32.029,24.172,37.471
2003-10-09 22:00,12.41,32.160,24.308,37.447
2003-10-09 23:00,12.18,32.197,24.380,37.279
2003-10-10 00:00,12.25,32.176,24.350,37.320
2003-10-10 01:00,12.58,32.019,24.166,37.451
2003-10-10 02:00,12.56,31.906,24.082,37.314
2003-10-10 03:00,12.36,32.050,24.232,37.287
2003-10-10 04:00,12.26,32.134,24.316,37.285
2003-10-10 05:00,12.23,32.120,24.311,37.244
2003-10-10 06:00,12.14,32.205,24.394,37.252
2003-10-10 07:00,12.26,32.220,24.383,37.375
2003-10-10 08:00,12.29,32.176,24.343,37.356
2003-10-10 09:00,12.43,32.126,24.278,37.429
2003-10-10 11:00,12.20,32.254,24.421,37.357
2003-10-10 12:00,12.23,32.215,24.385,37.343
2003-10-10 13:00,12.41,32.124,24.280,37.409
2003-10-10 14:00,12.54,31.966,24.133,37.360
2003-10-10 15:00,12.32,32.058,24.246,37.260
2003-10-10 16:00,12.23,32.127,24.316,37.251
2003-10-10 17:00,12.24,32.126,24.313,37.259
2003-10-10 19:00,12.33,32.129,24.299,37.343
2003-10-10 21:00,12.55,31.964,24.129,37.366
2003-10-10 22:00,12.50,32.009,24.174,37.369
2003-10-10 23:00,12.45,32.118,24.268,37.439
2003-10-11 00:00,12.29,32.174,24.341,37.354
2003-10-11 01:00,12.21,32.189,24.368,37.298
2003-10-11 02:00,12.51,32.000,24.165,37.369
2003-10-11 03:00,12.34,32.117,24.288,37.339
2003-10-11 04:00,12.38,32.117,24.280,37.375
2003-10-11 05:00,12.42,32.093,24.254,37.386
2003-10-11 06:00,12.34,32.205,24.356,37.431
2003-10-11 07:00,12.31,32.203,24.360,37.402
2003-10-11 08:00,12.24,32.207,24.377,37.344
2003-10-11 09:00,12.31,32.151,24.320,37.348
2003-10-11 10:00,12.38,32.113,24.277,37.371
2003-10-11 11:00,12.30,32.156,24.325,37.344
2003-10-11 12:00,12.25,32.191,24.362,37.336
2003-10-11 13:00,12.35,32.159,24.318,37.392
2003-10-11 14:00,12.43,32.088,24.248,37.389
2003-10-11 15:00,12.39,32.130,24.288,37.397
2003-10-11 16:00,12.38,32.148,24.304,37.407
2003-10-11 17:00,12.37,32.183,24.333,37.435
2003-10-11 18:00,12.35,32.195,24.347,37.430
2003-10-11 19:00,12.25,32.251,24.408,37.398
2003-10-11 20:00,12.32,32.197,24.354,37.405
2003-10-11 21:00,12.29,32.194,24.357,37.375
2003-10-11 22:00,12.38,32.105,24.271,37.362
2003-10-11 23:00,12.32,32.168,24.331,37.374
2003-10-12 00:00,12.08,32.301,24.479,37.298
2003-10-12 01:00,12.24,32.244,24.405,37.382
2003-10-12 02:00,12.41,32.138,24.291,37.424
2003-10-12 03:00,12.43,32.138,24.287,37.442
2003-10-12 04:00,12.43,32.138,24.287,37.442
2003-10-12 05:00,12.38,32.183,24.331,37.444
2003-10-12 06:00,12.38,32.191,24.337,37.452
2003-10-12 07:00,12.35,32.209,24.357,37.444
2003-10-12 08:00,12.33,32.205,24.358,37.422
2003-10-12 09:00,12.36,32.192,24.342,37.435
2003-10-12 10:00,12.45,32.126,24.274,37.447
2003-10-12 11:00,12.36,32.178,24.331,37.421
2003-10-12 12:00,12.25,32.254,24.411,37.401
2003-10-12 13:00,12.36,32.160,24.317,37.402
2003-10-12 14:00,12.43,32.127,24.278,37.430
2003-10-12 15:00,12.44,32.130,24.279,37.442
2003-10-12 16:00,12.55,32.037,24.186,37.443
2003-10-12 17:00,12.36,32.179,24.332,37.422
2003-10-12 18:00,12.31,32.216,24.370,37.416
2003-10-12 19:00,12.34,32.186,24.341,37.411
2003-10-12 20:00,12.36,32.171,24.325,37.413
2003-10-12 21:00,12.41,32.148,24.298,37.434
2003-10-12 22:00,12.46,32.106,24.256,37.435
2003-10-12 23:00,12.40,32.155,24.306,37.433
2003-10-13 00:00,12.23,32.265,24.423,37.395
2003-10-13 01:00,12.33,32.194,24.350,37.411
2003-10-13 02:00,12.40,32.152,24.303,37.429
2003-10-13 03:00,12.50,32.053,24.208,37.415
2003-10-13 04:00,12.47,32.044,24.207,37.379
2003-10-13 05:00,12.43,32.104,24.261,37.406
2003-10-13 06:00,12.43,32.134,24.284,37.437
2003-10-13 07:00,12.38,32.167,24.319,37.427
2003-10-13 10:00,12.45,32.100,24.254,37.420
2003-10-13 11:00,12.46,32.091,24.245,37.419
2003-10-13 12:00,12.38,32.151,24.306,37.410
2003-10-13 13:00,12.30,32.206,24.364,37.396
2003-10-13 15:00,12.47,32.087,24.240,37.424
2003-10-13 16:00,12.60,31.954,24.112,37.401
2003-10-13 19:00,12.61,32.019,24.161,37.478
2003-10-13 20:00,12.42,32.093,24.254,37.386
2003-10-13 21:00,12.55,32.030,24.181,37.436
2003-10-13 22:00,12.51,32.025,24.184,37.395
2003-10-13 23:00,12.43,32.089,24.249,37.390
2003-10-14 00:00,12.34,32.171,24.330,37.396
2003-10-14 01:00,12.61,31.931,24.092,37.385
2003-10-14 02:00,12.62,31.904,24.070,37.366
2003-10-14 03:00,12.64,31.894,24.058,37.373
2003-10-14 04:00,12.56,31.982,24.141,37.394
2003-10-14 05:00,12.55,31.893,24.074,37.292
2003-10-14 06:00,12.46,32.028,24.196,37.353
2003-10-14 07:00,12.35,32.139,24.303,37.371
2003-10-14 08:00,12.32,32.158,24.323,37.364
2003-10-14 09:00,12.34,32.145,24.309,37.368
2003-10-14 10:00,12.38,32.096,24.264,37.353
2003-10-14 11:00,12.34,32.147,24.311,37.370
2003-10-14 12:00,12.26,32.188,24.358,37.342
2003-10-14 13:00,12.32,32.151,24.318,37.357
2003-10-14 14:00,12.37,32.126,24.289,37.375
2003-10-14 15:00,12.52,31.941,24.118,37.316
2003-10-14 16:00,12.50,31.939,24.120,37.296
2003-10-14 17:00,12.58,31.767,23.971,37.186
2003-10-14 18:00,12.45,32.019,24.191,37.335
2003-10-14 19:00,12.34,32.196,24.349,37.422
2003-10-14 20:00,12.30,32.220,24.375,37.411
2003-10-14 21:00,12.29,32.227,24.382,37.409
2003-10-14 22:00,,,,
2003-10-14 23:00,12.37,32.104,24.272,37.352
2003-10-15 00:00,12.32,32.153,24.320,37.359
2003-10-15 01:00,12.20,32.234,24.405,37.336
2003-10-15 02:00,12.30,32.171,24.337,37.360
2003-10-15 04:00,,,,
2003-10-15 16:00,12.24,32.194,24.366,37.330
2003-10-15 17:00,12.24,32.208,24.377,37.345
2003-10-15 19:00,12.22,32.205,24.379,37.324
2003-10-15 21:00,12.26,32.188,24.358,37.342
2003-10-15 22:00,12.31,32.102,24.282,37.297
2003-10-15 23:00,12.31,32.075,24.261,37.268
2003-10-16 00:00,12.33,31.996,24.196,37.204
2003-10-16 01:00,12.30,31.997,24.202,37.178
2003-10-16 02:00,12.36,31.902,24.117,37.132
2003-10-16 03:00,12.31,31.986,24.191,37.175
2003-10-16 04:00,12.32,31.934,24.150,37.130
2003-10-16 07:00,12.28,32.016,24.221,37.180
2003-10-16 08:00,12.16,32.166,24.359,37.229
2003-10-16 09:00,12.19,32.177,24.362,37.267
2003-10-16 10:00,12.13,32.198,24.390,37.236
2003-10-16 12:00,,,,
2003-10-16 13:00,12.19,32.105,24.307,37.193
2003-10-16 14:00,12.18,32.125,24.324,37.204
2003-10-16 15:00,12.13,32.186,24.381,37.223
2003-10-16 18:00,12.20,32.024,24.242,37.117
2003-10-16 19:00,12.20,32.000,24.223,37.092
2003-10-16 20:00,12.17,32.054,24.271,37.122
2003-10-16 21:00,12.11,32.214,24.406,37.234
2003-10-16 22:00,12.08,32.266,24.452,37.261
2003-10-16 23:00,12.13,32.210,24.399,37.248
2003-10-17 00:00,12.10,32.255,24.440,37.268
2003-10-17 01:00,12.26,32.110,24.297,37.260
2003-10-17 02:00,,,,
2003-10-17 03:00,12.14,32.196,24.386,37.242
2003-10-17 04:00,12.14,32.179,24.374,37.225
2003-10-17 05:00,12.09,32.240,24.430,37.243
2003-10-17 06:00,12.13,32.131,24.338,37.166
2003-10-17 07:00,12.18,31.922,24.167,36.993
2003-10-17 08:00,12.08,32.223,24.419,37.217
2003-10-17 09:00,12.07,32.229,24.425,37.214
2003-10-17 10:00,12.08,32.210,24.408,37.203
2003-10-17 11:00,12.06,32.268,24.458,37.246
2003-10-17 12:00,12.17,32.091,24.299,37.160
2003-10-17 13:00,12.20,32.077,24.283,37.172
2003-10-17 14:00,12.14,32.206,24.394,37.253
2003-10-17 15:00,12.15,32.196,24.384,37.251
2003-10-17 16:00,12.13,32.170,24.368,37.206
2003-10-17 17:00,12.11,32.185,24.384,37.204
2003-10-17 18:00,12.12,32.151,24.356,37.178
2003-10-17 20:00,12.09,32.127,24.342,37.126
2003-10-17 22:00,12.12,32.117,24.329,37.142
2003-10-17 23:00,12.08,32.190,24.393,37.183
2003-10-18 00:00,12.09,32.213,24.409,37.215
2003-10-18 01:00,12.19,32.048,24.262,37.133
2003-10-18 02:00,12.15,32.135,24.337,37.188
2003-10-18 03:00,12.09,32.215,24.410,37.217
2003-10-18 05:00,12.15,32.099,24.310,37.151
2003-10-18 10:00,12.18,31.971,24.205,37.044
2003-10-18 12:00,12.21,32.032,24.246,37.134
2003-10-18 15:00,12.14,32.140,24.343,37.184
2003-10-18 16:00,,,,
2003-10-18 19:00,12.19,31.921,24.164,37.001
2003-10-18 20:00,12.24,31.825,24.080,36.945
2003-10-18 21:00,12.08,31.974,24.225,36.958
2003-10-18 22:00,12.04,31.979,24.237,36.928
2003-10-18 23:00,12.06,31.988,24.240,36.955
2003-10-19 00:00,12.11,32.011,24.248,37.023
2003-10-19 01:00,12.15,32.078,24.293,37.129
2003-10-19 02:00,12.15,32.026,24.253,37.075
2003-10-19 03:00,12.15,32.038,24.262,37.087
2003-10-19 04:00,12.13,32.095,24.310,37.129
2003-10-19 05:00,12.12,32.109,24.323,37.134
2003-10-19 06:00,12.00,32.148,24.375,37.067
2003-10-19 07:00,12.08,32.098,24.322,37.087
2003-10-19 08:00,12.15,31.968,24.208,37.014
2003-10-19 10:00,12.12,32.018,24.253,37.040
2003-10-19 11:00,,,,
2003-10-19 13:00,12.04,32.110,24.339,37.064
2003-10-19 15:00,11.97,32.175,24.402,37.069
2003-10-19 16:00,11.97,32.172,24.400,37.066
2003-10-19 17:00,11.89,32.203,24.438,37.026
2003-10-19 18:00,11.97,32.158,24.389,37.051
2003-10-19 19:00,12.08,32.061,24.293,37.049
2003-10-19 20:00,12.11,31.956,24.206,36.966
2003-10-19 21:00,12.03,31.970,24.232,36.910
2003-10-19 22:00,11.90,32.149,24.395,36.979
2003-10-19 23:00,11.81,32.191,24.444,36.942
2003-10-20 01:00,11.81,32.263,24.500,37.017
2003-10-20 03:00,11.87,32.263,24.489,37.070
2003-10-20 04:00,11.83,32.270,24.502,37.042
2003-10-20 07:00,11.95,32.132,24.372,37.006
2003-10-20 08:00,11.98,31.864,24.159,36.755
2003-10-20 09:00,11.93,31.929,24.218,36.778
2003-10-20 10:00,11.76,31.944,24.261,36.643
2003-10-20 11:00,11.67,32.106,24.404,36.730
2003-10-20 12:00,11.60,32.276,24.548,36.842
2003-10-20 13:00,11.65,32.181,24.465,36.789
2003-10-20 16:00,,,,
2003-10-20 17:00,11.72,32.149,24.428,36.819
2003-10-20 18:00,11.72,32.140,24.420,36.809
2003-10-20 19:00,11.68,32.163,24.446,36.797
2003-10-20 20:00,11.68,32.142,24.430,36.776
2003-10-20 21:00,11.69,31.967,24.292,36.605
2003-10-20 22:00,11.64,31.993,24.321,36.587
2003-10-20 23:00,11.58,32.104,24.418,36.648
2003-10-21 00:00,11.57,32.093,24.412,36.628
2003-10-21 01:00,11.53,32.215,24.513,36.717
2003-10-21 02:00,11.52,32.215,24.515,36.708
2003-10-21 03:00,11.53,32.242,24.535,36.745
2003-10-21 04:00,11.51,32.294,24.578,36.780
2003-10-21 05:00,11.56,32.138,24.448,36.665
2003-10-21 06:00,11.56,32.192,24.490,36.720
2003-10-21 07:00,11.59,32.209,24.498,36.764
2003-10-21 08:00,11.57,32.205,24.499,36.743
2003-10-21 11:00,11.65,32.111,24.411,36.717
2003-10-21 12:00,11.58,32.139,24.446,36.684
2003-10-21 13:00,11.62,32.176,24.467,36.757
2003-10-21 15:00,11.62,32.201,24.486,36.783
2003-10-21 16:00,11.61,32.198,24.486,36.771
2003-10-21 18:00,11.58,32.215,24.505,36.762
2003-10-21 21:00,11.70,32.254,24.513,36.909
2003-10-21 22:00,11.63,31.900,24.250,36.482
2003-10-21 23:00,11.60,31.924,24.275,36.481
2003-10-22 10:00,11.54,31.904,24.270,36.407
2003-10-22 19:00,,,,
2003-10-22 20:00,11.58,31.800,24.183,36.336
2003-10-22 23:00,11.33,31.813,24.237,36.129
2003-10-23 02:00,11.39,31.824,24.235,36.193
2003-10-23 04:00,11.36,31.867,24.274,36.210
2003-10-23 08:00,11.51,31.587,24.029,36.055
2003-10-23 09:00,11.43,31.698,24.130,36.099
2003-10-23 11:00,11.39,31.733,24.164,36.099
2003-10-23 12:00,11.36,31.824,24.240,36.166
2003-10-23 13:00,11.33,31.833,24.253,36.149
2003-10-23 14:00,11.36,31.760,24.191,36.101
2003-10-23 16:00,,,,
2003-10-23 18:00,11.39,31.689,24.130,36.054
2003-10-23 19:00,11.40,31.509,23.988,35.879
2003-10-23 20:00,11.39,31.474,23.963,35.834
2003-10-23 21:00,11.40,31.587,24.049,35.959
2003-10-23 23:00,11.38,31.612,24.072,35.967
2003-10-24 00:00,11.32,31.634,24.100,35.937
2003-10-24 01:00,11.28,31.645,24.115,35.913